CZ-6A DEB

Satellite information

Favourite Embed

Satellite Type and Status

DEBRISIN ORBIT

Key statistics

Satellite CZ-6A DEB at a glance.

Uptime

1081

Days in orbit

Revolutions

≈ 13.9

Per day

Orbit

SSO

Sun Synchronous Orbit

Inclination

99.0

Latest

Satellite identification and parameters

Extended collection of information and parameters for CZ-6A DEB.

Object identification

Identified? True

Debris? True

Object name: CZ-6A DEB

International designator: 2022-151GC

Object number (NORAD): 54452

Object ID (CCSDS): 54452

Country: PEOPLES REPUBLIC OF CHINA (PRC)

Current information (Y/N): Y

RCS size: SMALL

Orbital parameters

Period: 103.675 minutes

Inclination: 98.9552 deg

SMA: 7310.445 km

Apoapsis: 1041.842 km

Periapsis: 822.779 km

RAAN: 272.4556 deg

Eccentricy: 0.01498287

Argument of periapsis: 358.8822 deg

Mean anomaly: 1.1981 deg

Mean motion: 13.8895128 rev/day

Mean motion (dot): 0.00000332 rev/day2

B* drag term: 0.00028289347 1/REarth

Two-line elements (TLE)

Creation date: Oct. 27, 2025, 2:46 a.m.

Reference frame: TEME

Reference center: EARTH

Epoch: Oct. 26, 2025, 9:26 p.m. UTC

TLE line 0: 0 CZ-6A DEB

TLE line 1: 1 54452U 22151GC 25299.89339402 .00000332 00000-0 28289-3 0 9996

TLE line 2: 2 54452 98.9552 272.4556 0149829 358.8822 1.1981 13.88951280149661

Live tracking on map

Real-time ground track for satellite CZ-6A DEB.

In-orbit conjunctions

A list of the most updated potential collisions computed for object CZ-6A DEB.

Target Orbit TCA Probability of collision Miss distance Type
FENGYUN 1C DEB SSO 2025-03-19 06:57:19 0.0001344255 82.0 (m) DEBRIS
CZ-2C DEB SSO 2024-11-10 23:18:22 0.0002738269 820.0 (m) DEBRIS

Associated space launch

Chinese satellite reported for atmospheric/ocean/environmental/spatial parameter research purposes, details TBD.

CZ-6A DEB was lifted into orbit during the mission ‘Long March 6A | Yunhai 3’, on board a Long March 6A space rocket.

The launch took place on Nov. 11, 2022, 10:52 p.m. from Launch Complex 9A.

For more information about the launch, click the button.

Launch to space Long March 6A | Yunhai 3
Long March 6A | Yunhai 3

Agency: N/A

Status: Launch Successful

Launch date: Nov. 11, 2022, 10:52 p.m. UTC

Rocket: Long March 6A

Launch pad: Launch Complex 9A

Location: Taiyuan Satellite Launch Center, People's Republic of China

...

Latest news about this satellite

There are no fresh news available about this satellite. Check back as we update our databases every day.


Newsletter sign-up

Weekly statistics, charts and insights to help you stay on top of the space industry.